Weather History for Fryeburg, ME

Change the Weather History Date:

Saturday, June 22, 2013

  Actual Average Record
Temperature  
Mean Temperature 68 °F -  
Max Temperature 84 °F 78 °F 93 °F (2012)
Min Temperature 53 °F 51 °F 46 °F (2005)
Cooling Degree Days 4    
Growing Degree Days 18 (Base 50)    
Moisture  
Dew Point 61 °F    
Average Humidity 83    
Maximum Humidity 97    
Minimum Humidity 40    
Precipitation  
Precipitation 0.83 in - - ()
Sea Level Pressure  
Sea Level Pressure 30.17 in    
Wind  
Wind Speed 1 mph (WNW)    
Max Wind Speed 17 mph    
Max Gust Speed 23 mph    
Visibility 8 miles    
Events Rain    
Averages and records for this station are not official NWS values.
T = Trace of Precipitation, MM = Missing Value Source: NWS Daily Summary

Daily Weather History Graph

Daily Weather History Graph

Search for Another Location

Airport:

Trip Planner

Search our weather history database for the weather conditions in past years. The results will help you decide how hot, cold, wet, or windy it might be!

Date:

Astronomy

Jun. 22, 2013 Rise Set
Actual Time 5:01 AM EDT 8:30 PM EDT
Civil Twilight 4:24 AM EDT 9:06 PM EDT
Nautical Twilight 3:37 AM EDT 9:54 PM EDT
Astronomical Twilight 2:36 AM EDT 10:55 PM EDT
Moon 7:39 PM EDT (6/22) 4:13 AM EDT (6/22)
Length of Visible Light 16h 41m
Length of Day
15h 29m
Waxing Gibbous, 99% of the Moon is Illuminated
Jun 22
Waxing Gibbous
Jun 23
Full
Jun 30
Last Quarter
Jul 8
New
Jul 15
First Quarter

Hourly Weather History & Observations

Time (EDT) Temp. Heat Index Dew Point Humidity Pressure Visibility Wind Dir Wind Speed Gust Speed Precip Events Conditions
12:54 AM 55.9 °F - 54.0 °F 93% 30.22 in 10.0 mi Calm Calm - N/A   Clear
1:54 AM 53.1 °F - 52.0 °F 96% 30.23 in 10.0 mi Calm Calm - N/A   Clear
2:54 AM 54.0 °F - 52.0 °F 93% 30.22 in 10.0 mi Calm Calm - N/A   Clear
3:54 AM 55.0 °F - 54.0 °F 96% 30.21 in 10.0 mi Calm Calm - N/A   Clear
4:54 AM 54.0 °F - 53.1 °F 97% 30.21 in 10.0 mi Calm Calm - N/A   Clear
5:54 AM 54.0 °F - 53.1 °F 97% 30.22 in 10.0 mi Calm Calm - N/A   Scattered Clouds
6:54 AM 59.0 °F - 55.0 °F 87% 30.21 in 10.0 mi Calm Calm - N/A   Mostly Cloudy
7:54 AM 63.0 °F - 55.9 °F 78% 30.20 in 10.0 mi Calm Calm - N/A   Clear
8:54 AM 68.0 °F - 55.9 °F 65% 30.19 in 10.0 mi Calm Calm - N/A   Clear
9:54 AM 73.0 °F - 57.0 °F 57% 30.19 in 10.0 mi Calm Calm - N/A   Clear
10:54 AM 77.0 °F - 60.1 °F 56% 30.19 in 10.0 mi Calm Calm - N/A   Clear
11:54 AM 82.0 °F 82.4 °F 60.1 °F 47% 30.17 in 10.0 mi Variable 3.5 mph - N/A   Clear
12:54 PM 84.9 °F 84.2 °F 57.9 °F 40% 30.15 in 10.0 mi SSW 8.1 mph - N/A   Partly Cloudy
1:54 PM 80.1 °F 80.9 °F 60.1 °F 50% 30.14 in 10.0 mi Calm Calm - N/A   Mostly Cloudy
2:54 PM 79.0 °F - 62.1 °F 56% 30.13 in 10.0 mi Calm Calm - 0.00 in   Mostly Cloudy
3:39 PM 68.0 °F - 64.4 °F 88% 30.17 in 1.8 mi WNW 17.3 mph 23.0 mph 0.40 in Rain Heavy Rain
3:41 PM 68.0 °F - 64.4 °F 88% 30.17 in 1.2 mi NW 16.1 mph 23.0 mph 0.51 in Rain Heavy Rain
3:54 PM 68.0 °F - 64.0 °F 87% 30.15 in 4.0 mi North 5.8 mph - 0.73 in Rain Light Rain
4:09 PM 71.6 °F - 66.2 °F 83% 30.14 in 10.0 mi Calm Calm - 0.00 in   Mostly Cloudy
4:54 PM 69.1 °F - 66.9 °F 93% 30.13 in 10.0 mi Calm Calm - 0.00 in   Partly Cloudy
5:54 PM 70.0 °F - 68.0 °F 93% 30.14 in 10.0 mi Calm Calm - 0.00 in Rain Light Rain
6:54 PM 69.1 °F - 68.0 °F 96% 30.14 in 10.0 mi Calm Calm - 0.01 in   Overcast
7:54 PM 69.1 °F - 66.9 °F 93% 30.15 in 10.0 mi Calm Calm - 0.08 in   Mostly Cloudy
8:27 PM 68.0 °F - 66.2 °F 94% 30.14 in 2.0 mi Calm Calm - 0.00 in Rain Light Rain
8:37 PM 68.0 °F - 66.2 °F 94% 30.14 in 5.0 mi Calm Calm - 0.01 in Rain Light Rain
8:54 PM 68.0 °F - 66.9 °F 96% 30.14 in 5.0 mi Calm Calm - 0.01 in   Overcast
9:54 PM 66.9 °F - 66.0 °F 97% 30.14 in 8.0 mi Calm Calm - 0.00 in   Mostly Cloudy
10:54 PM 66.0 °F - 64.9 °F 96% 30.14 in 5.0 mi Calm Calm - N/A   Overcast
11:30 PM 66.2 °F - 64.4 °F 94% 30.14 in 5.0 mi Calm Calm - N/A   Overcast
11:54 PM 66.0 °F - 64.9 °F 96% 30.14 in 5.0 mi Calm Calm - N/A   Overcast